一网星座-0715星 (ONEWEB-0715)

导读 | 星芒AI

ONEWEB-0715 是 OneWeb 卫星通信公司发射的低轨通信卫星之一,属于其全球宽带互联网星座计划。该卫星运行在约 1200 公里的近地轨道,采用先进通信技术,旨在为全球用户提供高速、低延迟的互联网服务。作为 OneWeb 扩展其卫星网络的一部分,ONEWEB-0715 有助于增强公司在偏远和农村地区的网络覆盖能力,支持航空、航海及地面用户的连接需求。该卫星系统采用可重复使用发射技术,致力于构建可持续的全球通信基础设施。

基本信息
目录编号:
55176
目录名称:
ONEWEB-0715
国际标识:
2023-004AN
轨道中心:
EARTH
卫星名称:
一网星座-0715星
卫星全名:
一网星座-0715星 (ONEWEB-0715)
卫星状态:
在轨 (已飞行1071 天)
发射日期:
2023-01-10 UTC
国别 :
英国 (GB)
星等 :
--
轨道信息
数据来源 国际轨道数据 AOE轨道数据
星历时间 2025-12-15T11:52:12+0800
22小时前
查看轨道信息
2025-12-14T03:00:00+0800
2天前
查看轨道信息
半长轴 7595.816km 7595.82km
偏心率 0.0001037 0.000113
轨道倾角 87.886° 87.885°
近地点辐角 92.389° 105.478°
升交点赤经 57.709° 57.982°
平近点角 267.735° 272.347°
近地点 1216.893km 1216.826km
远地点 1218.469km 1218.544km
周期 109.805分钟 109.805分钟
每日圈数 13.11418 13.11417
详细信息
平衡模式:
三轴稳定
覆盖范围:
全球
运营商:
一网卫星公司
运营商所在国:
英国
制造商(研发单位):
一网卫星公司
制造商所在国:
英国
使用方式:
暂无
卫星简介
OneWeb卫星网络由648颗重约125公斤的微型卫星组成,运行在1200公里的轨道上。 每颗卫星都能够提供至少每秒8千兆位的吞吐量,以使用其高吞吐量的Ku频段有效载荷为家庭和移动平台提供互联网接入。该卫星仍在工作。
2D轨道图
3D轨道图
轨道高度分析图
轨道倾角分析图
轨道综合分析图
查看轨道综合分析图